Location: ????????
(60.4333°N, 46.4710°E)
Time: 04:09:35
(UTC+00:00)

Cosmos 1607 - Pass Details

Date: 25 November 2020
Orbit: 908 x 995 km, 65.0° (Epoch: 19 January)

Event Time Altitude Azimuth Distance (km) Brightness Sun altitude
Rises 14:27:27 0° 236° (SW) 3,646 8.4 -16.4°
Reaches altitude 10° 14:29:59 10° 237° (WSW) 2,714 7.4 -16.7°
Maximum altitude 14:36:23 89° 330° (NNW) 993 4.0 -17.5°
Enters shadow 14:40:16 26° 58° (ENE) 1,836 4.9 -18.0°
